OISL  Lar Airport

Add Bookmark

Lar, Iran

Status IATA
Operational LRR
Latitude Longitude
27° 40' 28" N 54° 22' 59" E
27.674700 54.383301
Local (DST + 5) UTC (GMT + 4)
Oct 24, 2014 11:13 Oct 24, 2014 07:43
Sunrise-Sunset Local UTC
Begin Civil Twilight 05:33 02:03
Sunrise 05:56 02:26
Sunset 05:16 13:46
End Civil Twilight 05:40 14:10

Current Weather

METAR Observed VFR
OISL 240700Z 00000KT CAVOK 29/05 Q1017 Fri, Oct 24, 2014 @ 07:00 UTC
(43 Minutes ago)
Visual Flight Rules
Wind Visibility Clouds Conditions
Calm 10 km or more
  • Clear skies
  • No significant weather
Temperatures Readings Precipitation
Current Temp 29°C (84°F)
Dewpoint 5°C (41°F)
Humidity 22%
Altimeter 30.03"Hg
Sea Level Pressure 1017mb
Field Elevation 2641.08'
None Recorded

Additional weather within a 185.2km radius of OISL

Map ICAO Location
OISR 122.4km W (254°)
OIBK 133.7km S (197°)
OIBL 134.3km S (161°)
OIBV 139.6km S (227°)
OISF 149.8km N (335°)
OIBP 165.4km W (259°)
OIKQ 181.7km S (124°)

24 Hour Weather History

Loading
-

24 Hour Weather Graphs

Loading
-

CheckWX.com is intended as a tool to help pilots better visualize weather data. It is not intended as a substitute for an official weather briefing obtained from a Flight Service Station. CheckWX.com does not meet the FAA requirements for an official pre-flight weather briefing. Therefore, it's important that pilots still call and obtain an official FSS pre-flight weather briefing.